Location: Frankfurt+am+Main
(50.1100°N, 8.4815°E)
Time: 12:04:19
(UTC+02:00)

ISS - Visible Passes

Search period start: 13 May 2021 00:00
Search period end: 23 May 2021 00:00
Orbit: 417 x 422 km, 51.6° (Epoch: 13 May)

Date Brightness Start Highest point End Pass type
(mag) Time Alt. Az. Time Alt. Az. Time Alt. Az.
13 May -3.5 02:05:02 54° WNW 02:05:34 67° N 02:08:56 10° E visible
13 May -3.8 03:39:08 10° WNW 03:42:32 87° NNE 03:45:55 10° ESE visible
14 May -3.3 01:18:39 57° NE 01:18:39 57° NE 01:21:29 10° ENE visible
14 May -3.6 02:51:41 10° WNW 02:55:04 75° N 02:58:27 10° E visible
14 May -3.3 04:28:35 10° W 04:31:47 39° SSW 04:34:58 10° SE visible
14 May -2.9 22:51:05 10° SSW 22:54:03 29° SE 22:55:35 20° ESE visible
15 May -3.8 00:27:15 10° WSW 00:30:38 86° NNW 00:34:01 10° ENE visible
15 May -3.5 02:04:13 10° WNW 02:07:35 67° N 02:10:58 10° E visible
15 May -3.7 03:41:05 10° WNW 03:44:25 55° SSW 03:47:44 10° SE visible
15 May -2.4 22:04:13 10° S 22:06:45 20° SE 22:09:19 10° E visible
15 May -3.9 23:39:50 10° WSW 23:43:12 76° SSE 23:46:35 10° ENE visible
16 May -3.4 01:16:45 10° W 01:20:06 65° N 01:23:29 10° E visible
16 May -3.9 02:53:38 10° WNW 02:57:00 74° SSW 03:00:23 10° ESE visible
16 May -2.4 04:30:55 10° W 04:33:26 19° SW 04:35:55 10° S visible
16 May -3.8 22:52:29 10° SW 22:55:47 57° SSE 22:59:06 10° ENE visible
17 May -3.4 00:29:15 10° W 00:32:37 67° N 00:35:59 10° E visible
17 May -3.8 02:06:11 10° WNW 02:09:34 88° NNE 02:12:57 10° ESE visible
17 May -2.9 03:43:12 10° W 03:46:09 28° SW 03:49:04 10° SSE visible
17 May -3.3 22:05:13 10° SW 22:08:24 41° SSE 22:11:37 10° E visible
17 May -3.6 23:41:46 10° W 23:45:08 73° N 23:48:31 10° ENE visible
18 May -3.6 01:18:43 10° WNW 01:22:06 75° N 01:22:56 47° E visible
18 May -1.2 02:55:37 10° W 02:55:49 11° W 02:55:49 11° W visible
18 May -3.8 22:54:17 10° WSW 22:57:40 86° NNW 23:01:04 10° ENE visible
19 May -3.5 00:31:15 10° WNW 00:34:37 67° N 00:36:31 24° E visible
19 May -1.9 02:08:07 10° WNW 02:09:26 21° W 02:09:26 21° W visible
19 May -3.8 22:06:51 10° WSW 22:10:13 77° SSE 22:13:36 10° ENE visible
19 May -3.4 23:43:46 10° W 23:47:07 65° N 23:50:21 11° E visible
20 May -3.3 01:20:39 10° WNW 01:23:17 50° W 01:23:17 50° W visible
20 May -3.4 22:56:16 10° W 22:59:38 66° N 23:03:00 10° E visible
21 May -3.9 00:33:11 10° WNW 00:36:36 88° NE 00:37:12 57° ESE visible
21 May -3.5 22:08:46 10° W 22:12:09 73° N 22:15:31 10° ENE visible
21 May -3.6 23:45:44 10° WNW 23:49:07 75° N 23:51:10 22° E visible
22 May -2.0 01:22:38 10° W 01:24:06 22° W 01:24:06 22° W visible
22 May -3.4 22:58:15 10° WNW 23:01:37 67° N 23:04:59 10° E visible
